Time,TemperatureF,DewpointF,PressureIn,WindDirection,WindDirectionDegrees,WindSpeedMPH,WindSpeedGustMPH,Humidity,HourlyPrecipIn,Conditions,Clouds,dailyrainin,SoftwareType,DateUTC
2013-07-22 00:01:00,61.0,11.0,-100.00,West,268,8.0,15.0,14,-99.99,,,-99.99,,2013-07-22 06:01:00,
2013-07-22 00:11:00,61.0,11.0,-100.00,West,268,8.0,15.0,14,-99.99,,,-99.99,,2013-07-22 06:11:00,
2013-07-22 00:22:00,61.0,13.0,-100.00,West,273,8.0,15.0,15,-99.99,,,-99.99,,2013-07-22 06:22:00,
2013-07-22 01:22:00,61.0,6.0,-100.00,WSW,258,10.0,18.0,11,-99.99,,,-99.99,,2013-07-22 07:22:00,
2013-07-22 02:22:00,59.0,6.0,-100.00,SSW,207,5.0,13.0,12,-99.99,,,-99.99,,2013-07-22 08:22:00,
2013-07-22 02:32:00,59.0,5.0,-100.00,SW,229,7.0,14.0,11,-99.99,,,-99.99,,2013-07-22 08:32:00,
2013-07-22 02:43:00,59.0,5.0,-100.00,SSW,194,6.0,11.0,11,-99.99,,,-99.99,,2013-07-22 08:43:00,
2013-07-22 02:52:00,59.0,5.0,-100.00,SSW,194,6.0,11.0,11,-99.99,,,-99.99,,2013-07-22 08:52:00,
2013-07-22 03:02:00,58.0,6.0,-100.00,SW,214,6.0,13.0,12,-99.99,,,-99.99,,2013-07-22 09:02:00,
2013-07-22 03:22:00,58.0,6.0,-100.00,SSW,203,5.0,12.0,12,-99.99,,,-99.99,,2013-07-22 09:22:00,
2013-07-22 03:33:00,58.0,6.0,-100.00,SSW,203,7.0,12.0,12,-99.99,,,-99.99,,2013-07-22 09:33:00,
2013-07-22 04:01:00,58.0,6.0,-100.00,SSW,210,8.0,15.0,12,-99.99,,,-99.99,,2013-07-22 10:01:00,
2013-07-22 04:11:00,58.0,7.0,-100.00,SW,222,9.0,18.0,13,-99.99,,,-99.99,,2013-07-22 10:11:00,
2013-07-22 04:22:00,58.0,7.0,-100.00,SW,222,9.0,18.0,13,-99.99,,,-99.99,,2013-07-22 10:22:00,
2013-07-22 04:32:00,58.0,7.0,-100.00,SW,234,12.0,21.0,13,-99.99,,,-99.99,,2013-07-22 10:32:00,
2013-07-22 04:43:00,59.0,8.0,-100.00,SW,224,13.0,23.0,13,-99.99,,,-99.99,,2013-07-22 10:43:00,
2013-07-22 04:53:00,59.0,8.0,-100.00,SW,224,13.0,23.0,13,-99.99,,,-99.99,,2013-07-22 10:53:00,
2013-07-22 05:01:00,60.0,7.0,-100.00,SW,230,12.0,22.0,12,-99.99,,,-99.99,,2013-07-22 11:01:00,
2013-07-22 05:22:00,60.0,7.0,-100.00,SW,232,11.0,19.0,12,-99.99,,,-99.99,,2013-07-22 11:22:00,
2013-07-22 05:32:00,60.0,9.0,-100.00,SW,233,11.0,18.0,13,-99.99,,,-99.99,,2013-07-22 11:32:00,
2013-07-22 05:52:00,59.0,10.0,-100.00,WSW,244,9.0,19.0,14,-99.99,,,-99.99,,2013-07-22 11:52:00,
2013-07-22 06:02:00,59.0,11.0,-100.00,WSW,258,6.0,15.0,15,-99.99,,,-99.99,,2013-07-22 12:02:00,
2013-07-22 06:11:00,57.0,11.0,-100.00,West,280,5.0,8.0,16,-99.99,,,-99.99,,2013-07-22 12:11:00,
2013-07-22 06:22:00,57.0,11.0,-100.00,West,280,5.0,8.0,16,-99.99,,,-99.99,,2013-07-22 12:22:00,
2013-07-22 06:32:00,57.0,11.0,-100.00,WNW,289,6.0,10.0,16,-99.99,,,-99.99,,2013-07-22 12:32:00,
2013-07-22 06:43:00,57.0,11.0,-100.00,WNW,283,6.0,10.0,16,-99.99,,,-99.99,,2013-07-22 12:43:00,
2013-07-22 06:53:00,57.0,11.0,-100.00,WNW,283,6.0,10.0,16,-99.99,,,-99.99,,2013-07-22 12:53:00,
2013-07-22 07:11:00,57.0,11.0,-100.00,WNW,289,8.0,16.0,16,-99.99,,,-99.99,,2013-07-22 13:11:00,
2013-07-22 07:21:00,57.0,11.0,-100.00,WNW,291,10.0,18.0,16,-99.99,,,-99.99,,2013-07-22 13:21:00,
2013-07-22 07:53:00,57.0,15.0,-100.00,West,276,5.0,12.0,19,-99.99,,,-99.99,,2013-07-22 13:53:00,
2013-07-22 08:01:00,57.0,15.0,-100.00,West,276,5.0,12.0,19,-99.99,,,-99.99,,2013-07-22 14:01:00,
2013-07-22 08:22:00,60.0,15.0,-100.00,West,277,6.0,11.0,17,-99.99,,,-99.99,,2013-07-22 14:22:00,
2013-07-22 08:53:00,65.0,16.0,-100.00,West,269,4.0,9.0,15,-99.99,,,-99.99,,2013-07-22 14:53:00,
2013-07-22 09:52:00,67.0,19.0,-100.00,West,270,3.0,10.0,16,-99.99,,,-99.99,,2013-07-22 15:52:00,
2013-07-22 10:11:00,65.0,20.0,-100.00,West,271,4.0,11.0,18,-99.99,,,-99.99,,2013-07-22 16:11:00,
2013-07-22 10:21:00,64.0,22.0,-100.00,West,259,5.0,13.0,20,-99.99,,,-99.99,,2013-07-22 16:21:00,
2013-07-22 10:32:00,64.0,24.0,-100.00,SW,234,3.0,10.0,22,-99.99,,,-99.99,,2013-07-22 16:32:00,
2013-07-22 10:52:00,64.0,25.0,-100.00,WNW,297,5.0,12.0,23,-99.99,,,-99.99,,2013-07-22 16:52:00,
2013-07-22 11:01:00,64.0,26.0,-100.00,SW,225,3.0,13.0,24,-99.99,,,-99.99,,2013-07-22 17:01:00,
2013-07-22 11:11:00,64.0,26.0,-100.00,SW,225,3.0,13.0,24,-99.99,,,-99.99,,2013-07-22 17:11:00,
2013-07-22 11:23:00,65.0,27.0,-100.00,West,265,6.0,19.0,24,-99.99,,,-99.99,,2013-07-22 17:23:00,
2013-07-22 11:32:00,65.0,27.0,-100.00,WNW,285,6.0,20.0,24,-99.99,,,-99.99,,2013-07-22 17:32:00,
2013-07-22 11:43:00,65.0,27.0,-100.00,WNW,285,6.0,20.0,24,-99.99,,,-99.99,,2013-07-22 17:43:00,
2013-07-22 11:52:00,65.0,28.0,-100.00,WNW,289,6.0,16.0,25,-99.99,,,-99.99,,2013-07-22 17:52:00,
2013-07-22 12:03:00,65.0,28.0,-100.00,WNW,289,6.0,16.0,25,-99.99,,,-99.99,,2013-07-22 18:03:00,
2013-07-22 12:13:00,65.0,24.0,-100.00,WNW,292,9.0,19.0,21,-99.99,,,-99.99,,2013-07-22 18:13:00,
2013-07-22 12:23:00,65.0,24.0,-100.00,WNW,292,9.0,19.0,21,-99.99,,,-99.99,,2013-07-22 18:23:00,
2013-07-22 12:47:00,67.0,26.0,-100.00,WNW,296,8.0,22.0,21,-99.99,,,-99.99,,2013-07-22 18:47:00,
2013-07-22 12:58:00,67.0,26.0,-100.00,WNW,296,8.0,22.0,21,-99.99,,,-99.99,,2013-07-22 18:58:00,
2013-07-22 13:22:00,69.0,19.0,-100.00,WNW,300,10.0,23.0,15,-99.99,,,-99.99,,2013-07-22 19:22:00,
2013-07-22 13:43:00,73.0,17.0,-100.00,WNW,294,7.0,17.0,12,-99.99,,,-99.99,,2013-07-22 19:43:00,
2013-07-22 13:55:00,73.0,17.0,-100.00,WNW,294,7.0,17.0,12,-99.99,,,-99.99,,2013-07-22 19:55:00,
2013-07-22 14:03:00,73.0,15.0,-100.00,WNW,293,10.0,22.0,11,-99.99,,,-99.99,,2013-07-22 20:03:00,
2013-07-22 14:22:00,72.0,12.0,-100.00,NW,306,9.0,22.0,10,-99.99,,,-99.99,,2013-07-22 20:22:00,
2013-07-22 14:32:00,73.0,15.0,-100.00,NW,314,6.0,16.0,11,-99.99,,,-99.99,,2013-07-22 20:32:00,
2013-07-22 14:43:00,73.0,15.0,-100.00,NW,305,10.0,21.0,11,-99.99,,,-99.99,,2013-07-22 20:43:00,
2013-07-22 14:52:00,73.0,15.0,-100.00,NW,305,10.0,21.0,11,-99.99,,,-99.99,,2013-07-22 20:52:00,
2013-07-22 15:01:00,74.0,16.0,-100.00,NW,312,8.0,24.0,11,-99.99,,,-99.99,,2013-07-22 21:01:00,
2013-07-22 15:11:00,73.0,13.0,-100.00,WNW,298,7.0,19.0,10,-99.99,,,-99.99,,2013-07-22 21:11:00,
2013-07-22 15:32:00,73.0,15.0,-100.00,NW,312,6.0,14.0,11,-99.99,,,-99.99,,2013-07-22 21:32:00,
2013-07-22 15:43:00,75.0,15.0,-100.00,North,0,5.0,16.0,10,-99.99,,,-99.99,,2013-07-22 21:43:00,
2013-07-22 15:53:00,75.0,15.0,-100.00,North,0,5.0,16.0,10,-99.99,,,-99.99,,2013-07-22 21:53:00,
2013-07-22 16:01:00,73.0,15.0,-100.00,NW,306,8.0,19.0,11,-99.99,,,-99.99,,2013-07-22 22:01:00,
2013-07-22 16:11:00,73.0,11.0,-100.00,West,277,7.0,17.0,9,-99.99,,,-99.99,,2013-07-22 22:11:00,
2013-07-22 16:22:00,73.0,11.0,-100.00,West,277,7.0,17.0,9,-99.99,,,-99.99,,2013-07-22 22:22:00,
2013-07-22 16:32:00,73.0,13.0,-100.00,NNW,343,6.0,23.0,10,-99.99,,,-99.99,,2013-07-22 22:32:00,
2013-07-22 16:43:00,74.0,9.0,-100.00,NW,312,7.0,25.0,8,-99.99,,,-99.99,,2013-07-22 22:43:00,
2013-07-22 16:52:00,74.0,9.0,-100.00,NW,312,7.0,25.0,8,-99.99,,,-99.99,,2013-07-22 22:52:00,
2013-07-22 17:01:00,73.0,5.0,-100.00,NW,317,9.0,28.0,7,-99.99,,,-99.99,,2013-07-22 23:01:00,
2013-07-22 17:22:00,73.0,5.0,-100.00,WNW,299,11.0,22.0,7,-99.99,,,-99.99,,2013-07-22 23:22:00,
2013-07-22 17:42:00,73.0,5.0,-100.00,NNW,345,5.0,20.0,7,-99.99,,,-99.99,,2013-07-22 23:42:00,
2013-07-22 18:01:00,71.0,4.0,-100.00,WNW,300,11.0,28.0,7,-99.99,,,-99.99,,2013-07-23 00:01:00,
2013-07-22 18:11:00,71.0,7.0,-100.00,NW,306,11.0,27.0,8,-99.99,,,-99.99,,2013-07-23 00:11:00,
2013-07-22 18:22:00,71.0,7.0,-100.00,NW,306,11.0,27.0,8,-99.99,,,-99.99,,2013-07-23 00:22:00,
2013-07-22 18:43:00,71.0,9.0,-100.00,WNW,289,8.0,24.0,9,-99.99,,,-99.99,,2013-07-23 00:43:00,
2013-07-22 18:52:00,71.0,9.0,-100.00,WNW,289,8.0,24.0,9,-99.99,,,-99.99,,2013-07-23 00:52:00,
2013-07-22 19:01:00,70.0,11.0,-100.00,West,273,7.0,20.0,10,-99.99,,,-99.99,,2013-07-23 01:01:00,
2013-07-22 19:11:00,69.0,12.0,-100.00,WNW,290,6.0,14.0,11,-99.99,,,-99.99,,2013-07-23 01:11:00,
2013-07-22 19:32:00,68.0,14.0,-100.00,WNW,290,8.0,20.0,12,-99.99,,,-99.99,,2013-07-23 01:32:00,
2013-07-22 19:43:00,67.0,13.0,-100.00,West,280,7.0,20.0,12,-99.99,,,-99.99,,2013-07-23 01:43:00,
2013-07-22 19:53:00,67.0,13.0,-100.00,West,280,7.0,20.0,12,-99.99,,,-99.99,,2013-07-23 01:53:00,
2013-07-22 20:01:00,66.0,12.0,-100.00,NW,310,6.0,18.0,12,-99.99,,,-99.99,,2013-07-23 02:01:00,
2013-07-22 20:11:00,65.0,11.0,-100.00,WSW,240,7.0,27.0,12,-99.99,,,-99.99,,2013-07-23 02:11:00,
2013-07-22 20:33:00,65.0,11.0,-100.00,WSW,238,3.0,11.0,12,-99.99,,,-99.99,,2013-07-23 02:33:00,
2013-07-22 20:43:00,65.0,11.0,-100.00,WNW,283,6.0,15.0,12,-99.99,,,-99.99,,2013-07-23 02:43:00,
2013-07-22 20:53:00,65.0,11.0,-100.00,WNW,283,6.0,15.0,12,-99.99,,,-99.99,,2013-07-23 02:53:00,
2013-07-22 21:01:00,65.0,11.0,-100.00,West,259,6.0,20.0,12,-99.99,,,-99.99,,2013-07-23 03:01:00,
2013-07-22 21:11:00,64.0,10.0,-100.00,West,279,7.0,19.0,12,-99.99,,,-99.99,,2013-07-23 03:11:00,
2013-07-22 21:22:00,64.0,10.0,-100.00,West,279,7.0,19.0,12,-99.99,,,-99.99,,2013-07-23 03:22:00,
2013-07-22 21:33:00,64.0,10.0,-100.00,West,270,7.0,17.0,12,-99.99,,,-99.99,,2013-07-23 03:33:00,
2013-07-22 21:43:00,63.0,11.0,-100.00,West,273,6.0,13.0,13,-99.99,,,-99.99,,2013-07-23 03:43:00,
2013-07-22 21:52:00,63.0,11.0,-100.00,West,273,6.0,13.0,13,-99.99,,,-99.99,,2013-07-23 03:52:00,
2013-07-22 22:01:00,63.0,11.0,-100.00,WSW,257,5.0,12.0,13,-99.99,,,-99.99,,2013-07-23 04:01:00,
2013-07-22 22:21:00,63.0,11.0,-100.00,WSW,249,5.0,11.0,13,-99.99,,,-99.99,,2013-07-23 04:21:00,
2013-07-22 22:32:00,62.0,11.0,-100.00,WSW,257,5.0,17.0,13,-99.99,,,-99.99,,2013-07-23 04:32:00,
2013-07-22 22:42:00,62.0,11.0,-100.00,WNW,282,6.0,16.0,13,-99.99,,,-99.99,,2013-07-23 04:42:00,
2013-07-22 22:53:00,62.0,11.0,-100.00,West,273,7.0,17.0,13,-99.99,,,-99.99,,2013-07-23 04:53:00,
2013-07-22 23:02:00,62.0,11.0,-100.00,West,273,7.0,17.0,13,-99.99,,,-99.99,,2013-07-23 05:02:00,
2013-07-22 23:11:00,62.0,9.0,-100.00,West,273,10.0,18.0,12,-99.99,,,-99.99,,2013-07-23 05:11:00,
2013-07-22 23:22:00,62.0,9.0,-100.00,West,273,10.0,18.0,12,-99.99,,,-99.99,,2013-07-23 05:22:00,
2013-07-22 23:43:00,62.0,9.0,-100.00,West,260,9.0,20.0,12,-99.99,,,-99.99,,2013-07-23 05:43:00,
2013-07-22 23:52:00,62.0,9.0,-100.00,West,260,9.0,20.0,12,-99.99,,,-99.99,,2013-07-23 05:52:00,